Temp
19 20 20 19 19 19 18 18 17 17 17 17 17 18 18 17 17 16 16 16 16 16 16 16 16 16 15 15 15 15 15 15 12 14 15 15 15 15 14 13 13 12 12
18 19 19 19 19 18 18 18 17 17 17 17 17 17 17 18 18 17 16 16 16 16 16 16 16 16 15 15 15 15 15 15 13 12 15 15 14 14 14 13 13 12 12
17 18 19 19 18 19 19 18 18 17 17 17 17 17 17 17 17 17 17 16 16 17 16 16 16 15 15 15 15 14 14 14 14 12 13 14 14 14 13 12 12 12 11
17 18 18 18 18 18 18 19 18 18 17 17 17 17 17 17 16 17 16 16 15 15 15 16 16 16 16 15 15 15 14 13 13 12 11 12 13 13 13 12 12 11 11
16 16 17 17 17 17 17 17 18 18 18 18 17 17 17 16 16 16 16 16 15 15 15 15 16 17 18 17 15 15 13 12 11 10 10 10 11 11 12 11 11 11 10
15 15 16 16 16 16 16 17 17 17 18 18 18 17 17 16 16 16 16 15 15 15 14 15 15 15 16 17 17 16 16 12 11 11 10 10 10 11 12 12 11 8 8
14 14 15 15 15 15 15 16 17 17 17 17 18 18 17 17 17 16 16 16 15 14 14 14 14 14 15 15 15 16 15 15 14 14 12 11 12 13 13 11 10 10 10
13 13 14 14 14 14 14 15 15 16 16 16 16 17 17 17 17 17 17 16 15 15 14 15 15 15 15 15 14 13 13 13 13 14 14 14 15 15 15 15 13 11 9
12 13 13 13 13 13 13 13 14 14 15 16 16 16 16 17 17 17 16 16 15 14 15 14 15 15 15 15 15 13 12 12 12 15 14 14 14 15 14 13 10 8 6
12 12 12 12 12 12 12 13 13 14 14 15 16 15 15 15 16 16 16 16 15 15 14 14 14 14 15 14 14 14 12 12 12 11 11 12 13 13 13 13 12 8 7
12 12 12 12 12 12 12 12 12 13 13 13 14 15 15 15 15 15 16 15 14 15 15 14 14 14 14 15 15 14 13 14 12 11 11 10 10 12 12 12 12 12 9
12 11 11 11 11 11 11 12 12 12 12 12 12 12 14 15 15 15 15 15 15 14 15 15 14 14 14 14 14 14 14 13 12 10 10 9 8 9 10 11 11 10 10
11 10 11 11 11 11 11 11 11 11 11 11 11 12 12 13 13 14 14 15 15 14 14 14 15 15 14 14 14 14 13 13 11 9 9 8 8 9 9 9 9 8 8
10 10 10 10 10 10 11 10 10 10 10 10 11 11 12 12 12 13 14 14 15 15 14 14 14 14 14 14 14 14 12 12 11 10 10 8 7 7 6 6 6 5 4
8 9 9 10 10 10 10 10 10 10 10 10 10 10 11 11 12 13 13 13 14 14 14 13 12 11 11 12 12 12 11 11 10 10 9 7 5 5 4 5 5 3 3
5 6 6 8 9 9 9 9 9 9 9 10 10 11 11 11 12 13 13 14 14 13 12 10 10 9 9 10 10 10 9 10 10 9 8 6 5 4 3 3 3 3 2
5 5 6 6 7 7 7 8 8 8 8 8 9 10 10 11 11 11 12 13 13 11 10 10 9 9 8 9 9 9 8 9 9 8 6 5 6 4 3 2 3 2 2
2 3 4 5 5 6 6 7 7 7 7 7 8 9 9 9 10 11 12 12 9 10 9 9 10 9 9 8 8 8 8 8 8 7 6 6 5 4 3 3 2 2 2
-0 1 2 2 3 4 4 5 6 6 6 7 8 8 9 9 10 10 11 9 8 8 8 8 9 9 9 8 8 7 7 7 7 6 6 6 4 4 4 3 3 2 2
-1 -0 0 1 1 3 3 4 5 6 6 7 8 8 8 9 9 9 9 10 9 8 8 8 8 8 8 8 8 7 7 7 6 6 6 5 4 4 4 3 2 2 1
-2 -2 -2 -1 -1 -0 1 2 3 4 5 6 6 7 8 8 9 9 9 9 9 8 8 8 8 8 8 8 7 7 7 6 6 6 5 5 4 3 4 2 2 2 1
-3 -3 -3 -3 -3 -2 -2 -1 -0 0 2 5 6 7 8 8 8 8 9 9 9 9 9 8 8 8 8 8 7 7 6 6 5 5 5 4 3 3 2 2 2 1 1
-4 -4 -4 -4 -3 -3 -3 -3 -3 -2 -2 -1 -1 2 6 8 8 8 8 8 9 9 9 9 8 8 8 7 7 7 7 6 5 5 4 3 3 3 2 2 2 1 1
-5 -5 -4 -4 -4 -4 -4 -4 -4 -3 -3 -3 -3 -2 -2 -2 -1 3 6 7 8 8 8 8 8 8 8 7 7 7 7 7 6 5 5 3 3 2 2 2 1 1 1
-5 -5 -5 -5 -5 -5 -4 -4 -4 -4 -4 -4 -4 -4 -4 -3 -3 -2 -2 0 4 6 7 7 7 7 8 7 7 8 7 6 6 5 4 3 2 2 2 1 1 1 0
-6 -6 -6 -5 -5 -5 -5 -5 -5 -5 -5 -4 -4 -4 -4 -4 -4 -4 -4 -3 -2 1 4 5 5 6 6 6 6 7 7 6 5 5 4 2 2 1 1 1 0 -0 -0
Height
770 768 767 767 767 769 770 770 772 774 776 777 777 779 779 781 782 783 784 786 787 789 791 792 793 797 800 803 806 808 809 809 810 808 807 809 810 812 813 813 814 814 814
768 765 763 762 762 762 762 763 765 766 768 770 771 771 772 773 774 775 775 776 777 778 779 783 784 788 791 794 796 797 799 800 802 801 804 804 806 807 809 808 809 809 809
769 764 761 759 758 756 756 756 757 758 759 760 762 763 763 764 766 768 769 770 769 769 769 771 773 777 780 782 784 786 788 791 794 795 797 800 801 802 803 803 803 803 803
771 767 763 760 757 754 752 751 750 750 751 752 752 753 754 756 757 759 761 762 762 762 763 763 764 764 766 768 771 773 777 781 784 788 790 793 793 795 796 796 796 797 797
773 770 765 761 757 753 750 747 745 744 744 743 743 744 746 746 747 750 751 752 753 754 753 754 753 753 754 757 760 762 766 770 774 779 781 783 784 784 783 786 789 791 791
774 769 766 761 757 753 748 745 741 739 737 736 736 736 735 736 738 740 742 742 743 743 743 743 743 745 746 748 749 751 753 756 761 765 767 769 769 770 774 777 781 784 786
774 769 765 760 756 751 747 743 739 735 732 730 729 728 726 726 728 730 732 732 732 731 732 734 734 734 736 738 741 743 744 746 748 752 753 753 756 755 764 768 770 772 773
771 768 764 759 755 750 745 740 736 732 728 725 722 721 719 718 719 720 721 721 720 719 720 721 721 723 724 727 731 731 732 732 735 739 737 739 741 747 752 754 759 764 767
770 765 761 757 753 748 743 738 733 728 724 720 716 713 711 709 710 710 711 710 708 707 709 709 710 711 713 715 717 718 719 717 722 723 726 730 734 740 743 747 751 757 760
766 762 758 754 750 745 740 735 730 725 719 714 710 707 704 701 700 700 701 700 697 698 698 696 697 698 703 705 705 707 705 706 709 713 717 720 724 729 732 735 738 744 749
763 759 754 749 745 741 736 731 726 720 715 710 705 701 698 696 693 691 691 690 688 687 685 684 684 686 689 692 693 695 690 700 701 703 706 709 712 716 719 724 727 730 735
758 754 749 745 739 735 731 726 721 717 711 706 701 695 691 688 686 684 682 680 680 677 674 674 673 676 677 680 682 682 688 692 693 695 697 699 700 704 707 712 716 721 726
752 747 743 739 734 729 724 720 716 712 708 702 698 692 686 682 679 677 675 672 670 668 666 664 664 664 666 668 670 672 677 681 682 683 683 684 686 691 698 702 710 716 721
743 739 736 732 728 723 718 714 711 707 703 699 694 688 683 677 673 670 668 665 661 658 656 654 654 656 657 657 659 660 663 666 667 667 671 675 680 684 686 691 699 705 712
740 735 730 725 721 716 712 708 704 701 699 694 689 684 679 672 668 665 662 658 655 652 650 646 646 645 645 646 646 647 650 654 656 658 663 666 670 676 680 684 690 697 701
737 732 727 721 715 710 704 699 696 693 690 686 682 678 671 667 662 658 654 651 647 646 643 639 636 636 636 636 636 638 638 641 643 648 653 656 661 667 672 678 683 686 691
729 724 719 716 710 705 700 696 689 681 678 676 671 667 663 659 654 651 645 642 638 637 633 630 628 627 625 626 627 628 628 629 634 637 640 644 650 657 663 668 674 680 686
725 720 715 709 704 698 694 690 685 679 673 662 658 658 653 650 647 642 638 633 629 626 625 622 618 617 617 616 617 619 621 623 624 627 631 635 639 645 652 658 664 669 676
721 716 710 704 699 693 688 683 678 672 667 659 653 646 644 641 638 634 631 626 623 619 617 615 613 611 608 607 608 609 612 614 616 619 623 627 631 636 640 647 653 660 667
717 712 706 699 692 686 680 675 669 664 657 650 645 640 637 634 629 625 622 619 616 612 610 607 604 603 602 600 598 599 602 605 607 610 613 617 622 627 632 637 644 651 658
716 709 703 697 692 686 679 670 663 656 649 643 636 633 629 627 620 617 613 610 607 604 601 599 596 593 592 591 591 589 590 593 597 600 603 606 611 617 624 629 634 642 650
719 712 705 699 692 685 679 672 663 656 646 634 627 622 619 616 611 607 603 601 599 596 592 590 587 584 582 582 582 582 581 582 586 591 596 599 604 611 617 622 628 634 641
721 715 708 702 695 689 681 674 666 658 649 641 630 620 611 605 601 597 594 590 589 587 585 582 579 575 572 570 571 572 572 571 574 580 588 591 595 601 607 614 621 628 634
725 719 713 707 701 694 686 678 671 662 654 645 637 628 620 612 604 595 589 585 582 578 575 573 570 566 564 561 560 561 561 563 565 567 575 581 587 594 600 607 613 619 626
730 724 718 712 705 698 690 683 676 667 660 652 643 634 627 618 609 600 592 584 577 571 565 562 559 555 554 552 551 551 554 555 557 562 567 573 580 586 592 599 607 614 622
735 729 723 717 711 704 697 690 682 674 667 659 650 641 633 625 616 607 596 587 576 566 558 553 549 546 543 542 542 543 543 545 548 553 561 563 572 581 587 595 603 611 618
Wind_Speed
17 24 26 30 38 39 40 42 42 42 42 41 42 41 41 41 42 43 43 43 42 41 39 37 37 35 35 33 32 32 32 30 16 15 11 19 19 20 19 17 15 15 14
30 24 22 29 30 34 40 41 40 40 41 43 43 43 43 44 43 45 46 45 45 45 44 41 40 37 36 36 37 38 37 36 32 22 27 17 22 24 22 20 17 17 16
35 29 24 17 26 32 36 38 38 39 39 40 42 45 46 46 45 45 46 46 46 48 46 45 44 40 39 41 41 42 42 39 38 29 23 23 22 21 23 22 20 18 17
35 28 30 29 26 19 31 35 38 38 39 39 41 43 45 46 46 47 46 45 46 46 46 46 45 45 45 44 44 45 42 40 37 34 29 27 22 24 24 25 22 20 19
34 27 25 29 30 26 23 21 31 36 38 38 41 42 44 44 44 44 46 46 45 44 44 47 49 49 49 48 44 45 39 37 30 27 24 24 28 20 29 22 26 21 20
34 32 25 29 32 31 28 25 22 23 34 37 38 40 42 44 41 44 45 43 43 43 41 45 48 46 50 50 51 49 48 40 34 29 28 22 30 31 30 29 23 17 6
31 32 27 30 33 35 34 31 27 24 22 30 37 38 40 43 43 44 46 47 42 42 43 40 39 42 45 48 49 51 50 49 44 42 34 36 28 41 36 30 29 21 17
29 30 28 31 31 34 35 35 34 31 26 24 26 36 40 42 41 43 47 49 46 44 42 43 44 41 43 46 44 45 45 50 50 49 48 45 46 36 32 36 32 28 21
28 30 30 31 32 32 32 36 36 36 34 30 26 27 34 39 40 40 40 43 41 43 42 44 45 44 43 46 47 41 41 45 45 54 50 48 46 35 32 30 29 22 11
30 29 31 32 31 33 34 35 35 37 35 33 31 29 29 33 36 38 39 39 36 35 38 41 43 47 43 44 48 42 39 39 44 38 46 48 44 39 35 37 37 29 11
29 34 36 34 33 31 33 35 35 36 34 33 34 34 30 29 32 33 35 39 36 34 35 36 37 41 47 49 50 47 46 39 37 40 39 38 40 39 39 40 41 40 31
34 34 34 36 33 29 31 35 35 32 30 29 29 31 32 32 27 27 30 35 39 37 36 35 36 38 41 44 51 53 48 41 34 33 32 32 35 42 45 44 43 40 35
32 30 31 33 34 34 30 29 29 27 25 24 23 24 26 28 30 29 28 29 35 41 39 38 38 38 40 42 44 48 50 40 33 30 32 33 39 45 41 45 40 34 30
29 28 28 27 29 31 32 26 25 23 23 23 24 24 26 27 27 31 30 28 30 34 38 42 42 38 37 39 39 42 44 40 38 35 34 32 30 33 38 40 39 35 29
26 27 27 28 27 28 31 30 27 26 28 29 29 29 27 27 29 32 35 32 30 30 33 33 31 29 28 30 31 33 37 35 36 33 30 27 28 31 29 36 31 31 22
32 27 25 27 26 27 27 26 30 31 32 35 37 37 36 35 38 39 39 39 37 32 26 23 22 22 22 24 24 26 30 33 35 33 28 28 29 29 28 31 30 28 25
29 30 29 29 27 23 23 25 24 35 39 38 37 34 33 37 39 40 41 40 39 27 24 23 23 22 23 23 24 26 28 32 33 32 32 31 30 29 30 28 28 25 20
28 28 25 25 26 25 26 29 30 29 26 35 38 33 34 34 35 37 36 39 28 24 27 24 24 24 23 24 25 26 26 26 30 30 30 30 30 31 28 27 29 27 24
28 25 25 26 27 29 28 29 29 31 32 34 33 34 32 30 31 32 32 28 24 22 23 24 27 26 26 27 27 27 28 28 30 29 29 30 30 31 28 29 29 29 26
26 27 28 27 27 27 25 26 26 27 27 25 25 26 28 28 25 24 27 29 26 27 27 28 28 28 28 29 28 28 28 28 29 30 30 30 30 32 30 29 29 28 28
26 27 29 24 24 25 27 26 26 27 27 29 30 32 34 30 29 27 25 24 28 28 29 29 31 30 30 30 30 29 30 29 31 31 31 30 30 30 30 30 30 29 26
26 26 26 26 26 26 27 26 25 26 29 29 30 30 31 32 28 29 28 28 28 31 34 32 32 32 31 31 31 31 31 30 30 30 30 29 29 29 29 29 28 28 27
28 28 28 28 27 30 27 28 27 28 28 28 32 30 26 24 25 27 28 29 29 29 30 32 32 34 33 33 34 34 33 34 33 33 32 31 30 30 30 29 29 27 27
30 28 28 28 30 29 29 28 29 31 31 30 30 30 31 32 32 30 26 26 27 29 31 32 33 36 35 33 33 37 37 35 36 39 39 34 31 31 30 29 29 30 29
28 28 29 28 29 30 30 31 32 32 33 33 33 33 33 32 32 32 33 31 31 33 35 33 33 35 38 40 36 37 38 36 37 39 38 34 32 33 31 30 30 29 29
28 29 29 29 29 30 30 31 31 32 33 34 35 37 36 36 35 34 34 34 33 29 26 28 31 34 36 35 35 37 38 38 41 41 37 35 33 30 29 28 30 28 30
Wind_Direction
322 262 247 246 244 243 244 249 249 250 248 248 245 245 243 242 239 236 236 237 235 237 237 237 239 240 239 237 237 237 236 231 230 250 246 224 219 224 228 240 249 253 264
3 5 274 255 249 245 246 249 253 253 253 249 248 244 244 243 241 238 235 234 235 234 237 236 239 238 237 237 234 235 234 233 230 234 238 224 222 226 231 237 246 252 259
7 8 4 345 271 253 251 252 252 254 254 253 249 246 246 244 242 242 240 237 236 237 237 236 237 234 235 234 232 233 234 234 233 232 234 234 227 223 222 232 242 246 248
2 9 13 11 4 317 268 258 254 254 254 253 251 247 247 246 244 244 242 239 238 240 240 239 239 236 234 232 231 231 229 228 228 228 233 231 226 226 228 231 236 237 242
351 353 3 358 1 356 355 308 273 261 256 255 253 250 246 244 241 239 241 242 240 240 240 242 243 243 243 239 229 228 222 221 217 217 224 225 222 211 219 224 233 235 238
344 342 347 354 350 351 349 342 333 296 267 258 256 253 246 243 242 241 241 239 240 239 239 241 243 243 246 244 243 240 235 215 212 210 218 219 224 220 223 225 216 207 235
338 336 340 349 345 342 340 339 332 325 317 279 263 258 254 250 247 246 245 241 239 239 239 239 241 239 242 241 242 245 241 240 233 228 218 220 223 231 225 220 216 216 219
331 332 337 342 337 335 334 333 333 331 318 305 289 270 263 260 258 254 250 246 240 240 240 239 239 240 236 239 236 234 229 234 233 232 235 236 240 242 232 229 226 226 230
325 322 327 331 328 326 325 325 326 326 322 310 305 289 273 269 266 261 254 246 242 242 241 241 240 241 239 237 233 228 229 230 232 241 238 242 244 243 235 220 210 193 211
314 318 322 320 320 319 319 319 317 320 319 317 308 305 295 283 276 269 263 249 246 246 247 244 243 241 241 237 231 229 230 228 225 225 229 237 240 236 229 224 216 195 177
313 318 311 311 314 314 313 315 314 315 317 321 317 310 305 296 288 281 272 258 250 251 248 248 244 243 242 240 239 232 233 236 228 223 222 221 222 220 217 218 223 222 206
307 309 307 308 307 306 308 313 316 314 314 314 311 311 309 309 306 297 286 275 262 251 252 252 249 246 244 243 240 240 240 238 230 215 217 214 208 209 215 219 222 227 234
301 298 299 303 303 303 303 305 309 309 306 304 305 304 302 303 303 305 302 291 277 266 259 257 255 252 246 245 245 243 242 233 223 214 218 214 213 219 217 219 220 220 223
291 289 292 293 293 293 295 295 297 298 300 299 301 301 303 301 300 305 305 303 294 280 272 267 260 256 251 246 242 242 234 228 221 221 221 219 212 206 208 208 203 205 205
319 307 298 295 289 287 287 287 288 293 292 292 293 293 296 295 297 298 298 294 291 290 286 270 261 254 245 239 234 229 225 222 220 222 217 206 194 197 197 202 199 190 194
305 306 311 312 303 292 286 285 296 297 297 296 292 288 289 288 294 298 298 298 296 284 275 255 249 241 240 239 233 228 216 215 216 216 209 197 192 192 191 194 194 193 198
297 295 294 296 296 302 301 299 299 302 300 297 294 288 286 289 293 293 294 295 293 289 253 248 248 243 238 233 230 223 220 217 212 207 201 197 196 192 187 188 192 192 195
318 318 316 308 301 299 298 297 296 294 291 295 298 289 288 288 290 294 295 296 288 274 254 252 248 246 243 234 227 223 224 217 209 206 203 201 194 190 186 189 191 191 190
320 317 314 307 301 298 296 294 293 294 292 286 285 287 291 292 292 292 295 283 272 268 265 256 256 254 243 237 231 223 219 214 210 207 205 202 196 191 194 192 190 191 184
330 327 323 315 310 306 299 292 289 288 291 294 295 288 290 294 288 286 284 281 273 268 266 264 261 256 252 243 230 220 217 214 210 207 206 203 198 197 198 188 184 182 188
345 343 341 335 332 328 319 314 304 286 281 280 280 281 278 277 280 281 279 274 274 270 269 264 266 261 254 248 235 220 215 215 211 208 204 201 196 195 196 189 185 185 181
354 351 351 351 347 344 342 336 326 330 330 297 284 283 280 273 274 274 274 275 273 272 273 269 267 263 258 249 239 228 218 213 208 205 203 197 193 194 189 185 179 177 174
5 4 2 359 358 357 355 354 352 350 347 341 349 343 314 287 272 272 273 276 278 277 282 276 268 267 262 252 241 233 222 216 208 200 198 193 188 188 184 182 179 174 173
9 7 6 5 6 5 4 2 1 1 0 358 356 356 354 346 339 338 307 292 290 290 289 281 273 269 266 254 242 238 232 223 211 205 202 192 188 185 181 181 178 175 171
6 9 9 5 7 6 5 6 7 8 7 6 3 1 358 357 353 347 339 330 310 294 289 283 276 268 267 259 248 247 237 224 219 209 197 189 184 181 179 176 172 169 166
7 9 7 6 5 5 8 6 6 5 8 7 6 6 3 1 360 357 356 351 347 336 303 289 280 271 264 262 252 248 243 233 216 212 195 181 175 174 170 168 163 162 162